Winnemucca, NV

10:35 AM PDT on March 27, 2017 (GMT -0700)
Winnemucca Municipal

Weather History for KWMC - May, 2013

Change the Weather History Date:

Monday, May 13, 2013

  Actual Average Record
Temperature  
Mean Temperature 65 °F 54 °F  
Max Temperature 89 °F 71 °F 94 °F (1976)
Min Temperature 41 °F 37 °F 20 °F (1916)
Degree Days  
Heating Degree Days 0 11  
Month to date heating degree days 109 164  
Since 1 July heating degree days 6148 6044  
Cooling Degree Days 0 0  
Month to date cooling degree days 1 0  
Year to date cooling degree days 1 0  
Growing Degree Days 14 (Base 50)    
Moisture  
Dew Point 27 °F    
Average Humidity 34    
Maximum Humidity 58    
Minimum Humidity 10    
Precipitation  
Precipitation 0.00 in 0.04 in 0.39 in (1998)
Month to date precipitation 0.24 0.49  
Year to date precipitation 1.58 3.74  
Snow  
Snow 0.00 in 0.00 in 0.80 in (1880)
Month to date snowfall 0.0 0.1  
Since 1 July snowfall 21.9 20.9  
Snow Depth 0.00 in    
Sea Level Pressure  
Sea Level Pressure 29.98 in    
Wind  
Wind Speed 9 mph (SW)    
Max Wind Speed 25 mph    
Max Gust Speed 37 mph    
Visibility 10 miles    
Events      
T = Trace of Precipitation, MM = Missing Value Source: NWS Daily Summary

Daily Weather History Graph

Daily Weather History Graph

Search for Another Location

Airport or City:

Trip Planner

Search our weather history database for the weather conditions in past years. The results will help you decide how hot, cold, wet, or windy it might be!

Date:

Astronomy

May. 13, 2013 Rise Set
Actual Time 5:35 AM PDT 8:00 PM PDT
Civil Twilight 5:04 AM PDT 8:31 PM PDT
Nautical Twilight 4:25 AM PDT 9:10 PM PDT
Astronomical Twilight 3:43 AM PDT 9:53 PM PDT
Moon 8:25 AM PDT (5/13) 11:12 PM PDT (5/13)
Length of Visible Light 15h 27m
Length of Day
14h 25m
Waxing Crescent, 13% of the Moon is Illuminated
May 13
Waxing Crescent
May 17
First Quarter
May 24
Full
May 31
Last Quarter
Jun 8
New

Hourly Weather History & Observations

Time (PDT) Temp. Windchill Dew Point Humidity Pressure Visibility Wind Dir Wind Speed Gust Speed Precip Events Conditions
12:56 AM 62.1 °F - 30.0 °F 30% 30.02 in 10.0 mi NNE 4.6 mph - N/A   Clear
1:56 AM 54.0 °F - 30.9 °F 41% 30.02 in 10.0 mi East 3.5 mph - N/A   Clear
2:56 AM 48.9 °F - 30.9 °F 50% 30.02 in 10.0 mi Calm Calm - N/A   Clear
3:56 AM 48.9 °F - 33.1 °F 54% 30.02 in 10.0 mi ESE 5.8 mph - N/A   Clear
4:56 AM 46.0 °F 41.9 °F 32.0 °F 58% 30.03 in 10.0 mi SE 8.1 mph - N/A   Clear
5:56 AM 44.1 °F 41.5 °F 30.0 °F 58% 30.05 in 10.0 mi South 4.6 mph - N/A   Clear
6:56 AM 54.0 °F - 33.1 °F 45% 30.06 in 10.0 mi Calm Calm - N/A   Clear
7:56 AM 66.0 °F - 33.1 °F 29% 30.06 in 10.0 mi South 5.8 mph - N/A   Clear
8:56 AM 73.9 °F - 32.0 °F 21% 30.04 in 10.0 mi SW 8.1 mph - N/A   Clear
9:56 AM 81.0 °F - 24.1 °F 12% 30.02 in 10.0 mi SW 15.0 mph 24.2 mph N/A   Clear
10:56 AM 82.9 °F - 26.1 °F 13% 30.01 in 10.0 mi WSW 17.3 mph 27.6 mph N/A   Scattered Clouds
11:56 AM 82.9 °F - 26.1 °F 13% 30.01 in 10.0 mi SW 10.4 mph 33.4 mph N/A   Clear
1:56 PM 87.1 °F - 27.0 °F 11% 29.97 in 10.0 mi SW 12.7 mph 23.0 mph N/A   Clear
2:56 PM 88.0 °F - 26.1 °F 11% 29.96 in 10.0 mi WSW 15.0 mph 27.6 mph N/A   Clear
3:14 PM 87.8 °F - 24.8 °F 10% 30.07 in 10.0 mi SW 10.4 mph 27.6 mph N/A   Clear
3:56 PM 87.1 °F - 24.1 °F 10% 29.94 in 10.0 mi WSW 17.3 mph 29.9 mph N/A   Clear
4:56 PM 87.1 °F - 24.1 °F 10% 29.92 in 10.0 mi SSW 16.1 mph 27.6 mph N/A   Clear
5:56 PM 86.0 °F - 26.1 °F 11% 29.91 in 10.0 mi WSW 16.1 mph 27.6 mph N/A   Clear
6:56 PM 82.9 °F - 23.0 °F 11% 29.89 in 10.0 mi SW 15.0 mph - N/A   Clear
7:56 PM 73.0 °F - 21.9 °F 15% 29.90 in 10.0 mi SW 9.2 mph - N/A   Clear
8:56 PM 66.0 °F - 21.0 °F 18% 29.92 in 10.0 mi WSW 12.7 mph - N/A   Clear
9:56 PM 64.0 °F - 19.0 °F 18% 29.93 in 10.0 mi West 8.1 mph - N/A   Clear
10:56 PM 63.0 °F - 21.0 °F 20% 29.94 in 10.0 mi North 9.2 mph - N/A   Clear
11:56 PM 60.1 °F - 27.0 °F 28% 29.95 in 10.0 mi WNW 3.5 mph - N/A   Clear